[[{"header":{"parameterUnit":"m.s-1","parameterCategory":1,"la1":30.2991,"la2":30.254,"lo1":-89.0895,"lo2":-89.0444,"dy":0.0017,"dx":0.0017,"nx":28,"ny":28,"refTime":"2023-09-17T03:00:00:Z","depth":0,"parameterNumber":2,"parameterNumberName":"U-component_of_WINDS"},"data":[0,0,0,0,0,0,0,0,0,0,0,0,0,0,0,0,0,0,0,0,0,0,0,0,0,0,0,0,0,0,0,0,0,0,0,0,0,0,0,0,0,0,0,0,0,0,0,0,0,0,0,0,0,0,0,0,0,0,0.7952,0.7953,0,0.802,0.802,0.8021,0.8012,0.8011,0.801,0.8009,0.8085,0.8088,0.8091,0,0,0,0,0,0,0,0,0,0,0,0,0,0.7824,0.7826,0.7952,0.7953,0.7954,0.8019,0.802,0.8021,0.8013,0.8011,0.801,0.8009,0.8084,0.8088,0.8092,0,0,0,0,0,0,0,0,0,0,0,0,0,0.7884,0.7827,0.7952,0.7957,0.7958,0.8019,0.802,0.8022,0.8013,0.8011,0.8009,0.8008,0.8083,0.8088,0.8092,0.8154,0,0,0.8106,0.8108,0,0,0,0,0,0,0,0,0.7881,0.7889,0.7956,0.7957,0.7958,0.8006,0.8003,0.8066,0.8013,0.7992,0.8009,0.8007,0.8061,0.8067,0.8084,0.8158,0.8161,0.8107,0.811,0.8111,0.8113,0,0,0,0,0,0,0,0.7877,0.7886,0.7979,0.7957,0.7958,0.7959,0.7965,0.8015,0.8036,0.7994,0.7994,0.8001,0.8061,0.8079,0.8085,0.8162,0.8107,0.8111,0.8114,0.8115,0.8293,0.8295,0,0,0,0,0,0,0.787,0.7883,0.7977,0.7981,0.7914,0.7962,0.797,0.7992,0.8035,0.804,0.8003,0.8001,0.8072,0.808,0.8088,0.8164,0.8111,0.8116,0.8118,0.8291,0.8293,0.8295,0,0,0,0,0,0,0.7867,0.7878,0.7974,0.7932,0.7944,0.7966,0.7992,0.7995,0.8012,0.8041,0.8046,0.8017,0.8071,0.8082,0.8138,0.8167,0.8118,0.8122,0.8289,0.8292,0.8294,0.8317,0,0,0,0,0,0,0.7864,0.7878,0.79,0.7932,0.7946,0.8021,0.7993,0.7997,0.802,0.8018,0.8056,0.806,0.8071,0.8131,0.8142,0.8172,0.8126,0.8286,0.829,0.8293,0.8314,0.832,0.8326,0,0,0,0,0,0.7859,0.7905,0.7901,0.7912,0.7974,0.8022,0.8031,0.8039,0.8022,0.8046,0.8064,0.8059,0.8162,0.8137,0.815,0.8181,0.8284,0.8289,0.8293,0.8311,0.8319,0.8326,0,0,0,0,0,0,0.7877,0.7909,0.7905,0.7962,0.7989,0.8021,0.8051,0.8047,0.8082,0.8079,0.809,0.8099,0.8156,0.8175,0.8146,0.8245,0.8221,0.8228,0.823,0.8238,0.8244,0.8239,0.813,0,0,0,0,0,0.7888,0.7922,0.7949,0.7997,0.801,0.8028,0.805,0.8054,0.8083,0.8096,0.8118,0.8149,0.8189,0.8214,0.8252,0.8316,0.8326,0.8345,0.8351,0.8356,0.8362,0.8399,0.8408,0.831,0.831,0.831,0,0,0.791,0.7932,0.7953,0.8001,0.8022,0.806,0.8038,0.8079,0.8107,0.8103,0.8156,0.8174,0.821,0.8271,0.8299,0.8288,0.8391,0.8361,0.8365,0.8369,0.8404,0.8413,0.8422,0.8313,0.8312,0.8312,0,0,0.797,0.7989,0.8031,0.8053,0.8085,0.8097,0.8107,0.8139,0.815,0.8204,0.8201,0.8237,0.8304,0.8329,0.8351,0.8421,0.8419,0.8434,0.8466,0.8501,0.8509,0.8516,0.8542,0.8551,0.844,0.844,0.844,0,0.7994,0.8048,0.8054,0.8095,0.8117,0.8112,0.8156,0.8178,0.8222,0.8239,0.8225,0.8309,0.8333,0.84,0.8417,0.8434,0.8448,0.843,0.8507,0.8514,0.8521,0.8546,0.8556,0.8442,0.8441,0.8441,0.8441,0,0.8078,0.8115,0.8146,0.8186,0.8212,0.8254,0.8269,0.8294,0.8297,0.831,0.8366,0.8394,0.8438,0.8454,0.8458,0.8522,0.8514,0.8504,0.8481,0.8532,0.8555,0.8565,0.8444,0.8443,0.8443,0.8442,0,0,0.8151,0.8193,0.8204,0.8223,0.8258,0.8289,0.8332,0.8372,0.8395,0.8426,0.8464,0.852,0.8511,0.8536,0.8542,0.8573,0.8628,0.8559,0.856,0.8572,0.8703,0.8711,0.8721,0.8626,0.8628,0.863,0.87,0,0.8215,0.8288,0.8295,0.8362,0.8398,0.8395,0.8433,0.846,0.8474,0.8509,0.8526,0.8566,0.855,0.8565,0.8595,0.8615,0.8655,0.861,0.8664,0.8666,0.8655,0.8734,0.8742,0.8807,0.8709,0.8711,0.8712,0,0.8299,0.833,0.84,0.8431,0.8446,0.848,0.8518,0.855,0.8582,0.859,0.8618,0.862,0.8667,0.8642,0.8708,0.8677,0.87,0.8713,0.8716,0.8722,0.8692,0.8743,0.8828,0.8838,0.8727,0.8725,0.8724,0,0.8347,0.8406,0.8456,0.8472,0.8509,0.8533,0.855,0.8579,0.8603,0.8638,0.8654,0.8694,0.8716,0.8748,0.8762,0.8742,0.8828,0.8803,0.8838,0.8838,0.8857,0.8855,0.8947,0.887,0.887,0.887,0.887,0,0.8418,0.8461,0.8477,0.8508,0.8557,0.8566,0.8615,0.8631,0.8658,0.8694,0.8694,0.8728,0.8744,0.8781,0.8792,0.8846,0.8856,0.8866,0.8869,0.8866,0.8865,0.8882,0.8878,0.8872,0.8872,0.8871,0.8871,0,0.8479,0.8491,0.8546,0.8576,0.8585,0.862,0.8647,0.8678,0.8691,0.8736,0.8748,0.877,0.8814,0.8831,0.8885,0.8893,0.8955,0.8954,0.8943,0.8944,0.8979,0.8975,0.9085,0.91,0.9012,0.9013,0.9014,0,0.8523,0.8556,0.859,0.8612,0.863,0.8666,0.8691,0.8701,0.8727,0.8765,0.8792,0.8835,0.887,0.894,0.8963,0.9005,0.9005,0.9041,0.9012,0.9008,0.9007,0.9005,0.9009,0.9046,0.9047,0.9048,0.9049,0,0.8602,0.8606,0.864,0.8676,0.8704,0.8734,0.8762,0.8782,0.8797,0.8826,0.8869,0.8896,0.895,0.8994,0.9037,0.9057,0.9056,0.9057,0.9068,0.9066,0.9059,0.9064,0.8959,0.9055,0.9054,0.9054,0.9054,0.9053,0.8657,0.8686,0.8714,0.8752,0.8774,0.8801,0.8831,0.8848,0.8884,0.8927,0.8932,0.8979,0.9012,0.9068,0.9091,0.9129,0.912,0.9135,0.9139,0.9143,0.9145,0.9052,0.9137,0.9137,0.9137,0.9137,0.9137,0,0.8735,0.8753,0.8787,0.8827,0.8857,0.8851,0.8883,0.8909,0.895,0.8979,0.9013,0.9064,0.9106,0.9131,0.9174,0.92,0.9201,0.9211,0.921,0.9215,0.9151,0.9137,0.921,0.921,0.921,0.921,0.921,0.921,0.878,0.8829,0.8837,0.8899,0.8917,0.8961,0.898,0.9006,0.9029,0.9085,0.9119,0.9134,0.9163,0.9208,0.9247,0.9254,0.927,0.9281,0.9287,0.9227,0.9219,0.9212,0.92,0.9284,0.9285,0.9349,0.9349,0.935]},{"header":{"parameterUnit":"m.s-1","parameterCategory":1,"la1":30.2991,"la2":30.254,"lo1":-89.0895,"lo2":-89.0444,"dy":0.0017,"dx":0.0017,"nx":28,"ny":28,"refTime":"2023-09-17T03:00:00:Z","depth":0,"parameterNumber":3,"parameterNumberName":"V-component_of_WINDS"},"data":[0,0,0,0,0,0,0,0,0,0,0,0,0,0,0,0,0,0,0,0,0,0,0,0,0,0,0,0,0,0,0,0,0,0,0,0,0,0,0,0,0,0,0,0,0,0,0,0,0,0,0,0,0,0,0,0,0,0,2.9571,2.9571,0,2.9596,2.9597,2.9597,2.9623,2.9624,2.9624,2.9624,2.9647,2.9647,2.9647,0,0,0,0,0,0,0,0,0,0,0,0,0,2.9541,2.9541,2.9571,2.9572,2.9572,2.9596,2.9597,2.9597,2.9623,2.9624,2.9624,2.9625,2.9647,2.9647,2.9647,0,0,0,0,0,0,0,0,0,0,0,0,0,2.9559,2.9541,2.9571,2.9588,2.959,2.9596,2.9597,2.9597,2.9623,2.9624,2.9624,2.9625,2.9647,2.9647,2.9648,2.9639,0,0,2.9649,2.9649,0,0,0,0,0,0,0,0,2.9558,2.956,2.9585,2.9587,2.9589,2.9607,2.9594,2.9611,2.9623,2.961,2.9624,2.9625,2.9633,2.9635,2.9638,2.964,2.9641,2.9649,2.9649,2.9649,2.9649,0,0,0,0,0,0,0,2.9556,2.9559,2.9581,2.9585,2.9588,2.9593,2.9596,2.9598,2.9618,2.9611,2.9613,2.9616,2.9634,2.9638,2.9639,2.9641,2.9649,2.9649,2.9649,2.9649,2.9634,2.9633,0,0,0,0,0,0,2.9553,2.9558,2.958,2.9582,2.9574,2.9593,2.9596,2.9601,2.9618,2.9622,2.9616,2.9617,2.9637,2.9638,2.964,2.9629,2.9649,2.965,2.965,2.9635,2.9634,2.9633,0,0,0,0,0,0,2.9552,2.9555,2.9579,2.957,2.9574,2.9593,2.9597,2.9601,2.9605,2.9622,2.9625,2.9616,2.9637,2.9639,2.9638,2.963,2.965,2.965,2.9635,2.9634,2.9634,2.9608,0,0,0,0,0,0,2.9551,2.9555,2.9553,2.957,2.9574,2.9579,2.9597,2.9601,2.9605,2.9608,2.9623,2.9625,2.9638,2.9638,2.9639,2.9631,2.965,2.9636,2.9635,2.9634,2.961,2.9606,2.9604,0,0,0,0,0,2.955,2.9545,2.9553,2.9555,2.9573,2.9579,2.9581,2.9596,2.9605,2.9602,2.9613,2.9625,2.9631,2.9637,2.9639,2.9631,2.9637,2.9635,2.9634,2.9611,2.9607,2.9604,0,0,0,0,0,0,2.9525,2.9547,2.9556,2.9556,2.9565,2.9583,2.958,2.9592,2.9598,2.96,2.9617,2.962,2.9617,2.9624,2.9631,2.9622,2.9635,2.9634,2.9618,2.9614,2.9611,2.9609,2.9651,0,0,0,0,0,2.952,2.9524,2.9543,2.9541,2.9545,2.9562,2.9565,2.9576,2.9585,2.9589,2.96,2.9608,2.9611,2.9613,2.9617,2.9611,2.9613,2.9606,2.9603,2.96,2.9599,2.9593,2.959,2.9628,2.9628,2.9628,0,0,2.9508,2.9521,2.9523,2.9536,2.9544,2.9546,2.9565,2.9567,2.9568,2.9589,2.9589,2.9597,2.9606,2.9602,2.9601,2.9608,2.9588,2.9598,2.9596,2.9596,2.9591,2.9588,2.9584,2.9627,2.9628,2.9628,0,0,2.9489,2.9499,2.9498,2.9506,2.9518,2.9529,2.9528,2.9544,2.955,2.955,2.9565,2.9566,2.9572,2.9578,2.9582,2.9561,2.9572,2.9562,2.9546,2.954,2.9537,2.9535,2.9525,2.9522,2.9561,2.9561,2.9561,0,2.9473,2.9478,2.9496,2.9497,2.9501,2.952,2.9517,2.9524,2.9536,2.9538,2.9546,2.9553,2.9561,2.9557,2.9552,2.9555,2.9553,2.9561,2.9537,2.9534,2.9532,2.9523,2.952,2.9559,2.9559,2.956,2.956,0,2.9457,2.946,2.9457,2.9469,2.9473,2.9473,2.9488,2.9489,2.9499,2.9508,2.9507,2.9517,2.9523,2.9523,2.9532,2.9519,2.9523,2.9534,2.9547,2.9526,2.9518,2.9516,2.9557,2.9558,2.9558,2.9559,0,0,2.9424,2.9444,2.9442,2.9447,2.9461,2.9463,2.9462,2.9468,2.9468,2.9475,2.9473,2.9477,2.9486,2.949,2.95,2.9496,2.9476,2.9506,2.9507,2.9499,2.946,2.9451,2.9447,2.9484,2.9483,2.9483,2.9458,0,2.9405,2.9406,2.942,2.9415,2.9417,2.9434,2.9433,2.944,2.9448,2.9449,2.9458,2.946,2.9473,2.9475,2.9471,2.9479,2.9468,2.9481,2.948,2.948,2.9476,2.9444,2.9435,2.9412,2.9456,2.9455,2.9455,0,2.9385,2.9391,2.9387,2.9398,2.94,2.9398,2.9404,2.9406,2.9413,2.9419,2.9422,2.9434,2.9431,2.9444,2.944,2.9448,2.9448,2.9452,2.9451,2.9451,2.9465,2.9441,2.9405,2.9401,2.9451,2.9451,2.9451,0,2.9359,2.9366,2.9364,2.9367,2.9381,2.938,2.9385,2.9393,2.9395,2.9399,2.94,2.9404,2.9405,2.9407,2.9418,2.9427,2.9411,2.9426,2.9414,2.9414,2.941,2.941,2.9372,2.9411,2.9412,2.9412,2.9412,0,2.9336,2.9333,2.9352,2.935,2.9346,2.9361,2.9355,2.9362,2.9369,2.9368,2.9383,2.9381,2.9396,2.9395,2.9404,2.9397,2.9398,2.9401,2.9403,2.9399,2.9399,2.9399,2.94,2.9411,2.9411,2.9411,2.9411,0,2.9307,2.932,2.9318,2.9331,2.9334,2.933,2.934,2.9338,2.9347,2.9345,2.9345,2.9358,2.9357,2.9368,2.937,2.9376,2.9365,2.937,2.9362,2.9364,2.9351,2.9351,2.9311,2.9305,2.935,2.9349,2.9349,0,2.9291,2.9289,2.9301,2.9302,2.9306,2.9307,2.9309,2.9323,2.9324,2.9331,2.9327,2.9328,2.9329,2.9327,2.9336,2.9336,2.9341,2.9327,2.9341,2.9336,2.9339,2.9338,2.9337,2.9324,2.9323,2.9323,2.9322,0,2.9262,2.9268,2.927,2.9274,2.9276,2.9279,2.9284,2.9283,2.9298,2.9298,2.9297,2.9298,2.93,2.9299,2.9301,2.9305,2.9315,2.9318,2.9315,2.931,2.9305,2.9306,2.9353,2.9318,2.9319,2.9319,2.9319,2.9319,2.9238,2.9235,2.9243,2.9245,2.9249,2.9252,2.9251,2.9258,2.9259,2.9261,2.9269,2.9267,2.9272,2.9275,2.9278,2.9275,2.9282,2.9278,2.9277,2.9275,2.9272,2.9306,2.9276,2.9276,2.9276,2.9276,2.9276,0,2.9208,2.9213,2.9215,2.922,2.922,2.923,2.9235,2.9234,2.9232,2.9237,2.9237,2.9235,2.9235,2.9242,2.9242,2.9238,2.9242,2.9237,2.9237,2.9237,2.9267,2.9269,2.9233,2.9233,2.9233,2.9233,2.9233,2.9233,2.9192,2.9188,2.9194,2.9191,2.9196,2.9195,2.9196,2.9198,2.9201,2.9199,2.9199,2.9204,2.9208,2.9208,2.9207,2.9209,2.9207,2.92,2.9204,2.9231,2.9235,2.9239,2.9241,2.92,2.92,2.9174,2.9173,2.9173]}]]